[[{"header":{"parameterUnit":"m.s-1","parameterCategory":1,"la1":30.2991,"la2":30.254,"lo1":-89.0895,"lo2":-89.0444,"dy":0.0017,"dx":0.0017,"nx":28,"ny":28,"refTime":"2026-03-02T09:00:00:Z","depth":0,"parameterNumber":2,"parameterNumberName":"U-component_of_WINDS"},"data":[0,0,0,0,0,0,0,0,0,0,0,0,0,0,0,0,0,0,0,0,0,0,0,0,0,0,0,0,0,0,0,0,0,0,0,0,0,0,0,0,0,0,0,0,0,0,0,0,0,0,0,0,0,0,0,0,0,0,-1.1469,-1.1469,0,-1.146,-1.146,-1.146,-1.1441,-1.1441,-1.144,-1.144,-1.1431,-1.1431,-1.1431,0,0,0,0,0,0,0,0,0,0,0,0,0,-1.1468,-1.1469,-1.1469,-1.1469,-1.1469,-1.146,-1.146,-1.146,-1.1441,-1.1441,-1.144,-1.144,-1.1431,-1.1431,-1.1431,0,0,0,0,0,0,0,0,0,0,0,0,0,-1.1465,-1.1469,-1.1469,-1.1458,-1.1457,-1.146,-1.146,-1.146,-1.1441,-1.1441,-1.144,-1.1439,-1.1431,-1.1431,-1.1431,-1.1444,0,0,-1.1431,-1.1431,0,0,0,0,0,0,0,0,-1.1465,-1.1465,-1.146,-1.1459,-1.1458,-1.1451,-1.1457,-1.1455,-1.1441,-1.1447,-1.144,-1.1439,-1.1438,-1.1437,-1.1437,-1.1443,-1.1443,-1.1431,-1.1432,-1.1432,-1.1432,0,0,0,0,0,0,0,-1.1466,-1.1465,-1.1466,-1.146,-1.1459,-1.1454,-1.1453,-1.1456,-1.1446,-1.1447,-1.1445,-1.1444,-1.1437,-1.1437,-1.1437,-1.1443,-1.1431,-1.1432,-1.1432,-1.1432,-1.1457,-1.1458,0,0,0,0,0,0,-1.1467,-1.1466,-1.1466,-1.1465,-1.146,-1.1454,-1.1453,-1.1454,-1.1446,-1.1444,-1.1445,-1.1444,-1.1437,-1.1437,-1.1436,-1.145,-1.1432,-1.1432,-1.1432,-1.1457,-1.1458,-1.1458,0,0,0,0,0,0,-1.1468,-1.1468,-1.1466,-1.1465,-1.1465,-1.1455,-1.1456,-1.1454,-1.1454,-1.1445,-1.1443,-1.1447,-1.1436,-1.1436,-1.1442,-1.1449,-1.1432,-1.1432,-1.1456,-1.1457,-1.1458,-1.1477,0,0,0,0,0,0,-1.1468,-1.1468,-1.1473,-1.1465,-1.1465,-1.1472,-1.1457,-1.1454,-1.1454,-1.1452,-1.1446,-1.1444,-1.1436,-1.1441,-1.1442,-1.1449,-1.1432,-1.1456,-1.1457,-1.1458,-1.1476,-1.1479,-1.1481,0,0,0,0,0,-1.1468,-1.1479,-1.1473,-1.1473,-1.1471,-1.1473,-1.1472,-1.1463,-1.1455,-1.1459,-1.1453,-1.1444,-1.1448,-1.1442,-1.1442,-1.145,-1.1455,-1.1456,-1.1458,-1.1475,-1.1478,-1.1481,0,0,0,0,0,0,-1.1488,-1.1478,-1.1471,-1.1481,-1.1478,-1.1469,-1.1475,-1.1467,-1.1466,-1.1464,-1.1453,-1.1451,-1.1458,-1.1455,-1.1448,-1.1461,-1.145,-1.1452,-1.1463,-1.1466,-1.1469,-1.1469,-1.1432,0,0,0,0,0,-1.1493,-1.1496,-1.1487,-1.1496,-1.1494,-1.1485,-1.1486,-1.1478,-1.1475,-1.1473,-1.1468,-1.1465,-1.1465,-1.1466,-1.1466,-1.1476,-1.1473,-1.1481,-1.1483,-1.1485,-1.1487,-1.149,-1.1493,-1.1463,-1.1463,-1.1462,0,0,-1.1504,-1.1499,-1.1502,-1.15,-1.1496,-1.1499,-1.1484,-1.1488,-1.1489,-1.1474,-1.1479,-1.1474,-1.147,-1.1477,-1.148,-1.1475,-1.1495,-1.1487,-1.1489,-1.1489,-1.1492,-1.1495,-1.1498,-1.1463,-1.1463,-1.1463,0,0,-1.1526,-1.1523,-1.1529,-1.1526,-1.1522,-1.1515,-1.1517,-1.151,-1.1506,-1.1511,-1.1499,-1.1501,-1.1502,-1.1499,-1.1498,-1.1517,-1.1508,-1.1517,-1.1531,-1.1535,-1.1537,-1.1539,-1.1545,-1.1548,-1.1519,-1.1519,-1.1519,0,-1.1541,-1.1544,-1.1534,-1.1538,-1.1537,-1.1523,-1.1529,-1.1527,-1.1522,-1.1522,-1.1515,-1.1516,-1.1512,-1.1518,-1.1523,-1.1523,-1.1523,-1.1518,-1.1538,-1.154,-1.1541,-1.1547,-1.1549,-1.152,-1.152,-1.152,-1.152,0,-1.1562,-1.1564,-1.157,-1.1565,-1.1565,-1.157,-1.156,-1.1561,-1.1554,-1.1548,-1.1553,-1.1547,-1.1545,-1.1547,-1.154,-1.1551,-1.1548,-1.154,-1.1528,-1.1546,-1.1551,-1.1553,-1.1521,-1.1521,-1.1521,-1.1521,0,0,-1.1596,-1.1585,-1.1587,-1.1585,-1.1578,-1.158,-1.1584,-1.1582,-1.1582,-1.158,-1.1582,-1.1583,-1.1576,-1.1574,-1.1567,-1.157,-1.1585,-1.1562,-1.1561,-1.1565,-1.1596,-1.1602,-1.1604,-1.1579,-1.1579,-1.158,-1.1596,0,-1.1615,-1.1621,-1.1612,-1.162,-1.1622,-1.1609,-1.1612,-1.1608,-1.1603,-1.1603,-1.1597,-1.1597,-1.1587,-1.1586,-1.1589,-1.1582,-1.1591,-1.1581,-1.1581,-1.1581,-1.1581,-1.1607,-1.1613,-1.1629,-1.1598,-1.1598,-1.1599,0,-1.1639,-1.1637,-1.1645,-1.1637,-1.1637,-1.1641,-1.1637,-1.1638,-1.1633,-1.1629,-1.1627,-1.1618,-1.1621,-1.161,-1.1613,-1.1607,-1.1606,-1.1603,-1.1603,-1.1602,-1.159,-1.1606,-1.1634,-1.1636,-1.1602,-1.1602,-1.1601,0,-1.1662,-1.1661,-1.1666,-1.1664,-1.1655,-1.1657,-1.1654,-1.1648,-1.1647,-1.1645,-1.1644,-1.1642,-1.164,-1.1639,-1.1629,-1.1622,-1.1633,-1.1622,-1.1629,-1.1629,-1.1631,-1.1631,-1.1658,-1.1632,-1.1632,-1.1632,-1.1632,0,-1.1684,-1.1689,-1.1676,-1.1678,-1.1684,-1.1673,-1.1678,-1.1673,-1.1668,-1.1669,-1.1658,-1.1659,-1.1647,-1.1647,-1.164,-1.1643,-1.1643,-1.1639,-1.1636,-1.1639,-1.164,-1.1638,-1.1636,-1.1633,-1.1633,-1.1632,-1.1632,0,-1.171,-1.1701,-1.1705,-1.1696,-1.1694,-1.1698,-1.169,-1.1692,-1.1686,-1.1687,-1.1687,-1.1677,-1.1676,-1.1666,-1.1664,-1.1659,-1.1664,-1.166,-1.1666,-1.1664,-1.1671,-1.1671,-1.1698,-1.1701,-1.1674,-1.1674,-1.1674,0,-1.1725,-1.1728,-1.1719,-1.1719,-1.1716,-1.1716,-1.1715,-1.1704,-1.1704,-1.1698,-1.17,-1.1698,-1.1696,-1.1695,-1.1687,-1.1685,-1.168,-1.169,-1.168,-1.1682,-1.1679,-1.1679,-1.1679,-1.1692,-1.1692,-1.1693,-1.1693,0,-1.1751,-1.1746,-1.1745,-1.1742,-1.1741,-1.1738,-1.1735,-1.1735,-1.1723,-1.1723,-1.1722,-1.172,-1.1717,-1.1715,-1.1711,-1.1706,-1.1697,-1.1696,-1.1697,-1.17,-1.1703,-1.17,-1.1671,-1.1695,-1.1695,-1.1695,-1.1695,-1.1695,-1.1771,-1.1773,-1.1767,-1.1766,-1.1762,-1.1759,-1.176,-1.1753,-1.1752,-1.1748,-1.1742,-1.1742,-1.1736,-1.1729,-1.1726,-1.1725,-1.172,-1.1722,-1.1722,-1.1723,-1.1724,-1.1703,-1.1724,-1.1724,-1.1724,-1.1724,-1.1724,0,-1.1796,-1.1791,-1.179,-1.1785,-1.1784,-1.1776,-1.1771,-1.1771,-1.1771,-1.1766,-1.1764,-1.1762,-1.176,-1.1751,-1.1748,-1.1749,-1.1745,-1.1748,-1.1748,-1.1747,-1.1729,-1.1728,-1.1752,-1.1752,-1.1752,-1.1752,-1.1752,-1.1752,-1.1809,-1.1812,-1.1806,-1.1807,-1.1802,-1.1801,-1.1799,-1.1796,-1.1792,-1.179,-1.1788,-1.1783,-1.1776,-1.1772,-1.177,-1.1767,-1.1766,-1.1771,-1.1767,-1.1751,-1.1748,-1.1745,-1.1744,-1.1771,-1.1771,-1.1785,-1.1785,-1.1785]},{"header":{"parameterUnit":"m.s-1","parameterCategory":1,"la1":30.2991,"la2":30.254,"lo1":-89.0895,"lo2":-89.0444,"dy":0.0017,"dx":0.0017,"nx":28,"ny":28,"refTime":"2026-03-02T09:00:00:Z","depth":0,"parameterNumber":3,"parameterNumberName":"V-component_of_WINDS"},"data":[0,0,0,0,0,0,0,0,0,0,0,0,0,0,0,0,0,0,0,0,0,0,0,0,0,0,0,0,0,0,0,0,0,0,0,0,0,0,0,0,0,0,0,0,0,0,0,0,0,0,0,0,0,0,0,0,0,0,-0.2193,-0.2192,0,-0.2135,-0.2134,-0.2133,-0.2154,-0.2155,-0.2157,-0.2158,-0.2094,-0.2091,-0.2088,0,0,0,0,0,0,0,0,0,0,0,0,0,-0.2316,-0.2314,-0.2193,-0.2192,-0.2192,-0.2135,-0.2134,-0.2133,-0.2154,-0.2155,-0.2157,-0.2158,-0.2095,-0.2091,-0.2088,0,0,0,0,0,0,0,0,0,0,0,0,0,-0.2261,-0.2313,-0.2193,-0.2195,-0.2195,-0.2135,-0.2134,-0.2133,-0.2153,-0.2155,-0.2157,-0.2159,-0.2096,-0.2092,-0.2087,-0.2021,0,0,-0.2074,-0.2072,0,0,0,0,0,0,0,0,-0.2264,-0.2256,-0.2196,-0.2195,-0.2194,-0.2154,-0.2154,-0.2095,-0.2153,-0.2169,-0.2158,-0.216,-0.2112,-0.2106,-0.2091,-0.2018,-0.2015,-0.2073,-0.2071,-0.2069,-0.2068,0,0,0,0,0,0,0,-0.2268,-0.2259,-0.217,-0.2195,-0.2194,-0.2197,-0.2191,-0.2143,-0.213,-0.2168,-0.2169,-0.2162,-0.2112,-0.2095,-0.2089,-0.2014,-0.2073,-0.207,-0.2067,-0.2065,-0.1879,-0.1877,0,0,0,0,0,0,-0.2273,-0.2262,-0.2172,-0.2168,-0.2235,-0.2193,-0.2187,-0.2165,-0.213,-0.2127,-0.216,-0.2163,-0.2102,-0.2095,-0.2087,-0.2004,-0.2069,-0.2065,-0.2062,-0.1881,-0.1879,-0.1876,0,0,0,0,0,0,-0.2275,-0.2264,-0.2174,-0.2215,-0.2204,-0.2189,-0.2164,-0.2162,-0.2146,-0.2125,-0.2122,-0.2146,-0.2103,-0.2093,-0.2036,-0.2002,-0.2063,-0.2059,-0.1884,-0.188,-0.1877,-0.184,0,0,0,0,0,0,-0.2279,-0.2265,-0.2241,-0.2215,-0.2202,-0.2126,-0.2162,-0.216,-0.2139,-0.2142,-0.2111,-0.2108,-0.2104,-0.2043,-0.2032,-0.1997,-0.2055,-0.1887,-0.1882,-0.1878,-0.1844,-0.1835,-0.1828,0,0,0,0,0,-0.2283,-0.2233,-0.224,-0.2229,-0.2172,-0.2124,-0.2116,-0.2114,-0.2136,-0.211,-0.2097,-0.2109,-0.2008,-0.2037,-0.2025,-0.1988,-0.1889,-0.1884,-0.1879,-0.1847,-0.1837,-0.1828,0,0,0,0,0,0,-0.2255,-0.223,-0.2237,-0.2177,-0.2153,-0.2128,-0.2096,-0.2104,-0.2072,-0.2076,-0.2073,-0.2066,-0.2006,-0.1992,-0.2024,-0.192,-0.1952,-0.1944,-0.1932,-0.1922,-0.1914,-0.1918,-0.2052,0,0,0,0,0,-0.2242,-0.2207,-0.2186,-0.2135,-0.2122,-0.2111,-0.209,-0.209,-0.2064,-0.2054,-0.2036,-0.2009,-0.1971,-0.1946,-0.191,-0.1842,-0.1834,-0.1811,-0.1803,-0.1797,-0.1789,-0.1749,-0.1737,-0.1859,-0.1859,-0.1859,0,0,-0.2215,-0.2196,-0.2174,-0.2129,-0.211,-0.2071,-0.2102,-0.2061,-0.2031,-0.2047,-0.1992,-0.1977,-0.1947,-0.1883,-0.1854,-0.1869,-0.1754,-0.179,-0.1785,-0.1781,-0.1742,-0.1731,-0.1721,-0.1856,-0.1856,-0.1857,0,0,-0.2144,-0.2128,-0.2083,-0.2063,-0.2034,-0.2026,-0.2015,-0.1988,-0.198,-0.1925,-0.1934,-0.1898,-0.1834,-0.1811,-0.179,-0.1709,-0.1717,-0.1697,-0.1655,-0.1616,-0.1606,-0.1597,-0.1565,-0.1554,-0.169,-0.169,-0.169,0,-0.2114,-0.2058,-0.2058,-0.2015,-0.1993,-0.2006,-0.1958,-0.1939,-0.1899,-0.1882,-0.19,-0.1818,-0.1798,-0.1728,-0.1708,-0.1692,-0.1676,-0.17,-0.1608,-0.1599,-0.1591,-0.156,-0.1549,-0.1688,-0.1688,-0.1688,-0.1688,0,-0.2019,-0.198,-0.1947,-0.1908,-0.1883,-0.1838,-0.1829,-0.1803,-0.1804,-0.1794,-0.1736,-0.1713,-0.1671,-0.1654,-0.1656,-0.1583,-0.1593,-0.1609,-0.164,-0.1577,-0.1548,-0.1536,-0.1684,-0.1685,-0.1686,-0.1686,0,0,-0.193,-0.1892,-0.1879,-0.186,-0.1828,-0.1797,-0.1751,-0.1711,-0.1687,-0.1659,-0.1618,-0.1562,-0.1576,-0.1553,-0.1552,-0.1518,-0.145,-0.1538,-0.1537,-0.152,-0.1364,-0.1351,-0.1337,-0.1456,-0.1454,-0.1452,-0.1366,0,-0.1856,-0.1777,-0.1774,-0.1701,-0.1662,-0.1673,-0.1633,-0.1607,-0.1596,-0.156,-0.1547,-0.1506,-0.153,-0.1515,-0.1482,-0.1466,-0.1419,-0.1472,-0.1415,-0.1413,-0.1421,-0.1323,-0.1309,-0.1228,-0.1355,-0.1353,-0.1352,0,-0.1758,-0.1727,-0.165,-0.162,-0.1604,-0.1568,-0.1529,-0.1496,-0.1466,-0.146,-0.1433,-0.1436,-0.1386,-0.142,-0.1349,-0.1385,-0.1362,-0.135,-0.1347,-0.134,-0.1377,-0.131,-0.1203,-0.119,-0.1334,-0.1336,-0.1337,0,-0.1698,-0.1636,-0.1581,-0.1565,-0.153,-0.1504,-0.1488,-0.146,-0.1435,-0.1401,-0.1384,-0.1344,-0.1322,-0.129,-0.1281,-0.1307,-0.1209,-0.1243,-0.1199,-0.1199,-0.1177,-0.1178,-0.1062,-0.1166,-0.1166,-0.1166,-0.1167,0,-0.1613,-0.1565,-0.1553,-0.1519,-0.1464,-0.1461,-0.1405,-0.1391,-0.1365,-0.1327,-0.1334,-0.1297,-0.1288,-0.1249,-0.1241,-0.1182,-0.1172,-0.1164,-0.1162,-0.1162,-0.1162,-0.1145,-0.1149,-0.1163,-0.1164,-0.1164,-0.1165,0,-0.1536,-0.1527,-0.1467,-0.1438,-0.143,-0.139,-0.1365,-0.133,-0.132,-0.127,-0.1258,-0.124,-0.1194,-0.1182,-0.1127,-0.1122,-0.105,-0.1055,-0.1061,-0.106,-0.1016,-0.102,-0.0883,-0.0864,-0.0983,-0.0981,-0.0981,0,-0.1482,-0.1445,-0.1412,-0.1387,-0.137,-0.133,-0.1304,-0.1299,-0.1271,-0.1233,-0.1202,-0.1157,-0.112,-0.1045,-0.1026,-0.0982,-0.0984,-0.0939,-0.0978,-0.0978,-0.098,-0.0982,-0.0976,-0.0932,-0.093,-0.0929,-0.0928,0,-0.1386,-0.1382,-0.1346,-0.1307,-0.1276,-0.1245,-0.1215,-0.1194,-0.1184,-0.1152,-0.1105,-0.1077,-0.102,-0.0973,-0.0929,-0.091,-0.0916,-0.0917,-0.0904,-0.0902,-0.0906,-0.09,-0.1038,-0.0919,-0.092,-0.0921,-0.0922,-0.0922,-0.1316,-0.1283,-0.1254,-0.1212,-0.1189,-0.116,-0.1126,-0.111,-0.1072,-0.1025,-0.1024,-0.0972,-0.0939,-0.0881,-0.0859,-0.0817,-0.083,-0.0812,-0.0807,-0.0802,-0.0797,-0.0914,-0.0809,-0.0809,-0.0809,-0.081,-0.081,0,-0.1218,-0.12,-0.1162,-0.1119,-0.1085,-0.1096,-0.1063,-0.1033,-0.0988,-0.0958,-0.0921,-0.0865,-0.082,-0.0796,-0.075,-0.072,-0.0721,-0.0708,-0.0709,-0.0704,-0.0789,-0.0804,-0.0707,-0.0707,-0.0708,-0.0708,-0.0708,-0.0708,-0.1163,-0.1105,-0.1098,-0.1028,-0.1009,-0.0959,-0.0939,-0.0911,-0.0887,-0.0825,-0.0787,-0.0773,-0.0744,-0.0695,-0.0653,-0.0647,-0.0628,-0.0613,-0.0608,-0.0688,-0.0698,-0.0708,-0.0721,-0.0609,-0.0609,-0.0525,-0.0524,-0.0524]}]]